{"data":{"norad_id":51751,"intl_designator":"2022-016AP","name":"STARLINK-3506","alt_names":[],"object_type":"PAYLOAD","status":"ACTIVE","operator":null,"country":"US","launch_date":"2022-02-21","launch_site_code":"AFETR","launch_vehicle":null,"mission":null,"orbit_class":"UNKNOWN","rcs_meters":null,"size_class":null,"mass_kg":null,"dimensions":null,"purposes":["comms"],"wikipedia_slug":null,"has_3d_model":false,"image_url":null,"decayed_at":null,"tle_current":{"epoch":"2026-05-25T00:30:52.941312Z","epoch_age_seconds":74021,"freshness":"FRESH","line1":"1 51751U 22016AP  26145.02144608  .00000829  00000+0  70148-4 0  9995","line2":"2 51751  53.2112 326.4616 0000962  92.4353 267.6749 15.08835052235228","mean_motion":15.08835052,"eccentricity":9.62e-5,"inclination_deg":53.2112,"raan_deg":326.4616,"arg_perigee_deg":92.4353,"mean_anomaly_deg":267.6749,"bstar":7.0148e-5,"rev_number":23522,"period_min":95.437867651023,"perigee_km":539.0930115136,"apogee_km":540.42401461031,"semimajor_km":6917.895513062,"source":"CELESTRAK","updated_at":"2026-05-25T13:38:16.947303Z"}}}